Eau Claire, WI

9:31 PM CDT on May 27, 2018 (GMT -0500)
Chippewa Valley Regional

Weather History for KEAU - November, 2013

Change the Weather History Date:

Friday, November 15, 2013

  Actual Average Record
Temperature  
Mean Temperature 39 °F 33 °F  
Max Temperature 54 °F 42 °F 66 °F (1953)
Min Temperature 24 °F 25 °F 0 °F (1940)
Degree Days  
Heating Degree Days 26 32  
Month to date heating degree days 448 418  
Since 1 July heating degree days 1166 1202  
Cooling Degree Days 0 0  
Month to date cooling degree days 0 0  
Year to date cooling degree days 653 579  
Moisture  
Dew Point 30 °F    
Average Humidity 75    
Maximum Humidity 100    
Minimum Humidity 50    
Precipitation  
Precipitation 0.00 in 0.07 in 1.00 in (1996)
Month to date precipitation 0.70 0.97  
Year to date precipitation 33.75 29.11  
Snow  
Snow 0.00 in 0.20 in 6.00 in (1956)
Month to date snowfall 0.1 2.0  
Since 1 July snowfall 0.1 2.4  
Since 1 September snowfall 0.1 2.4  
Snow Depth 0.00 in    
Sea Level Pressure  
Sea Level Pressure 29.83 in    
Wind  
Wind Speed 5 mph (South)    
Max Wind Speed 16 mph    
Max Gust Speed 21 mph    
Visibility 4 miles    
Events Fog    
T = Trace of Precipitation, MM = Missing Value Source: NWS Daily Summary

Daily Weather History Graph

Daily Weather History Graph

Search for Another Location

Airport or City:

Astronomy

Nov. 15, 2013 Rise Set
Actual Time 7:03 AM CST 4:37 PM CST
Civil Twilight 6:31 AM CST 5:08 PM CST
Nautical Twilight 5:56 AM CST 5:44 PM CST
Astronomical Twilight 5:21 AM CST 6:18 PM CST
Moon 3:37 PM CST (11/15) 4:55 AM CST (11/15)
Length of Visible Light 10h 36m
Length of Day
9h 33m
Waxing Gibbous, 96% of the Moon is Illuminated
Nov 15
Waxing Gibbous
Nov 17
Full
Nov 25
Last Quarter
Dec 2
New
Dec 9
First Quarter

Hourly Weather History & Observations

Time (CST) Temp. Windchill Dew Point Humidity Pressure Visibility Wind Dir Wind Speed Gust Speed Precip Events Conditions
12:56 AM 32.0 °F 26.4 °F 32.0 °F 100% 29.83 in 8.0 mi SW 5.8 mph - N/A   Clear
1:30 AM 30.2 °F - 30.2 °F 100% 29.81 in 1.8 mi Calm Calm - N/A   Clear
1:33 AM 30.2 °F - 30.2 °F 100% 29.81 in 1.0 mi Calm Calm - N/A   Mist
1:40 AM 30.2 °F - 28.4 °F 93% 29.81 in 0.5 mi Calm Calm - N/A Fog Light Freezing Fog
1:46 AM 30.2 °F - 28.4 °F 93% 29.81 in 1.2 mi Calm Calm - N/A   Partly Cloudy
1:56 AM 32.0 °F - 30.9 °F 96% 29.84 in 2.5 mi Calm Calm - N/A   Partly Cloudy
2:04 AM 30.2 °F - 30.2 °F 100% 29.81 in 3.0 mi Calm Calm - N/A   Clear
2:13 AM 28.4 °F - 28.4 °F 100% 29.81 in 1.5 mi Calm Calm - N/A   Clear
2:28 AM 28.4 °F - 26.6 °F 93% 29.82 in 0.5 mi Calm Calm - N/A Fog Light Freezing Fog
2:41 AM 30.2 °F - 30.2 °F 100% 29.82 in 0.2 mi Calm Calm - N/A Fog Light Freezing Fog
2:56 AM 28.0 °F - 27.0 °F 96% 29.84 in 0.2 mi Calm Calm - N/A Fog Light Freezing Fog
3:28 AM 28.4 °F - 28.4 °F 100% 29.82 in 0.5 mi Calm Calm - N/A Fog Light Freezing Fog
3:56 AM 28.9 °F - 28.9 °F 100% 29.85 in 0.5 mi Calm Calm - N/A Fog Light Freezing Fog
4:09 AM 28.4 °F - 26.6 °F 93% 29.82 in 0.2 mi Calm Calm - N/A Fog Light Freezing Fog
4:31 AM 26.6 °F - 26.6 °F 100% 29.82 in 0.5 mi Calm Calm - N/A Fog Light Freezing Fog
4:45 AM 26.6 °F - 24.8 °F 93% 29.82 in 0.2 mi Calm Calm - N/A Fog Light Freezing Fog
4:56 AM 26.1 °F 21.9 °F 25.0 °F 96% 29.86 in 0.2 mi South 3.5 mph - N/A Fog Light Freezing Fog
5:06 AM 26.6 °F 22.6 °F 26.6 °F 100% 29.82 in 1.0 mi South 3.5 mph - N/A   Mist
5:09 AM 26.6 °F 21.2 °F 26.6 °F 100% 29.82 in 2.5 mi South 4.6 mph - N/A   Scattered Clouds
5:29 AM 28.4 °F - 28.4 °F 100% 29.82 in 0.8 mi Calm Calm - N/A   Clear
5:51 AM 28.4 °F 24.6 °F 28.4 °F 100% 29.83 in 0.5 mi SSW 3.5 mph - N/A Fog Light Freezing Fog
5:56 AM 28.0 °F 24.2 °F 28.0 °F 100% 29.86 in 0.2 mi South 3.5 mph - N/A Fog Light Freezing Fog
6:16 AM 28.4 °F 24.6 °F 28.4 °F 100% 29.83 in 0.5 mi SW 3.5 mph - N/A Fog Light Freezing Fog
6:31 AM 28.4 °F - 28.4 °F 100% 29.84 in 0.5 mi Calm Calm - N/A Fog Light Freezing Fog
6:56 AM 27.0 °F - 27.0 °F 100% 29.88 in 0.5 mi Calm Calm - N/A Fog Light Freezing Fog
6:59 AM 26.6 °F - 26.6 °F 100% 29.85 in 0.2 mi Calm Calm - N/A Fog Light Freezing Fog
7:42 AM 26.6 °F - 26.6 °F 100% 29.86 in 1.0 mi Calm Calm - N/A   Mist
7:44 AM 26.6 °F 22.6 °F 26.6 °F 100% 29.86 in 2.0 mi WSW 3.5 mph - N/A   Scattered Clouds
7:56 AM 28.0 °F 24.2 °F 27.0 °F 96% 29.90 in 3.0 mi SSW 3.5 mph - N/A   Partly Cloudy
8:08 AM 28.4 °F - 28.4 °F 100% 29.86 in 1.2 mi Calm Calm - N/A   Partly Cloudy
8:13 AM 30.2 °F - 30.2 °F 100% 29.86 in 0.2 mi Calm Calm - N/A Fog Light Freezing Fog
8:29 AM 30.2 °F - 30.2 °F 100% 29.87 in 1.0 mi Calm Calm - N/A   Mist
8:32 AM 30.2 °F - 30.2 °F 100% 29.87 in 2.0 mi Calm Calm - N/A   Scattered Clouds
8:40 AM 30.2 °F - 30.2 °F 100% 29.87 in 3.0 mi Calm Calm - N/A   Scattered Clouds
8:56 AM 32.0 °F - 32.0 °F 100% 29.89 in 4.0 mi Calm Calm - N/A   Clear
9:56 AM 37.0 °F 34.5 °F 34.0 °F 89% 29.90 in 10.0 mi SW 3.5 mph - N/A   Clear
10:56 AM 44.1 °F 42.5 °F 36.0 °F 73% 29.90 in 10.0 mi Variable 3.5 mph - N/A   Clear
11:56 AM 48.9 °F - 36.0 °F 61% 29.86 in 10.0 mi South 4.6 mph - N/A   Clear
12:56 PM 51.1 °F - 36.0 °F 56% 29.84 in 10.0 mi South 9.2 mph - N/A   Clear
1:56 PM 53.1 °F - 36.0 °F 52% 29.82 in 10.0 mi SSW 5.8 mph - N/A   Clear
2:56 PM 53.1 °F - 35.1 °F 50% 29.81 in 10.0 mi SSW 6.9 mph - N/A   Clear
3:56 PM 51.1 °F - 35.1 °F 54% 29.81 in 10.0 mi South 6.9 mph - N/A   Clear
4:56 PM 46.9 °F - 35.1 °F 63% 29.81 in 10.0 mi SSE 6.9 mph - N/A   Clear
5:56 PM 45.0 °F 40.1 °F 35.1 °F 68% 29.80 in 10.0 mi SSE 9.2 mph - N/A   Clear
6:56 PM 46.0 °F 43.1 °F 35.1 °F 66% 29.79 in 10.0 mi South 5.8 mph - N/A   Clear
7:56 PM 43.0 °F 38.8 °F 35.1 °F 74% 29.78 in 10.0 mi South 6.9 mph - N/A   Clear
8:56 PM 43.0 °F 38.8 °F 35.1 °F 74% 29.78 in 10.0 mi South 6.9 mph - N/A   Clear
9:56 PM 44.1 °F 39.0 °F 35.1 °F 71% 29.76 in 10.0 mi SSE 9.2 mph - N/A   Clear
10:56 PM 45.0 °F 38.9 °F 35.1 °F 68% 29.74 in 10.0 mi South 12.7 mph - N/A   Clear
11:56 PM 43.0 °F 37.2 °F 34.0 °F 71% 29.73 in 10.0 mi South 10.4 mph - N/A   Clear